Hourly Data Report for March 29, 2019

TORONTO CITY
ONTARIO
Current Station Operator: ECCC - MSC

43°40'00.000" N
79°24'00.000" W
112.50 m
6158355
71508
XTO

Download Data

Hourly Data (March 2019)
Hourly Data Report for March 29, 2019
TIME
LST
Temp Definition
°C
Dew Point Definition
°C
Rel Hum Definition
%
Precip. Amount Definition
mm

Wind Dir Definition
10's deg

Wind Spd Definition
km/h
Visibility Definition
km
Stn Press Definition
kPa
Hmdx Definition


Wind Chill Definition


Weather Definition


00:00 7.5 -2.3 50 0.0 LegendMM LegendMM   100.28     LegendNANA
01:00 5.7 -0.6 64 0.0 LegendMM LegendMM   100.30     LegendNANA
02:00 5.3 -0.5 66 0.0 LegendMM LegendMM   100.32     LegendNANA
03:00 5.2 -0.7 66 0.0 LegendMM LegendMM   100.27     LegendNANA
04:00 5.4 -1.3 62 0.0 LegendMM LegendMM   100.30     LegendNANA
05:00 5.4 -1.3 62 0.0 LegendMM LegendMM   100.38     LegendNANA
06:00 5.4 -1.3 62 0.0 LegendMM LegendMM   100.43     LegendNANA
07:00 5.3 -1.8 60 0.0 LegendMM LegendMM   100.49     LegendNANA
08:00 5.3 -1.7 60 0.0 LegendMM LegendMM   100.53     LegendNANA
09:00 6.1 -2.8 53 0.0 LegendMM LegendMM   100.57     LegendNANA
10:00 8.5 -6.5 34 0.0 LegendMM LegendMM   100.57     LegendNANA
11:00 10.4 -7.8 27 0.0 LegendMM LegendMM   100.57     LegendNANA
12:00 10.3 -5.1 33 0.0 LegendMM LegendMM   100.54     LegendNANA
13:00 10.3 -4.4 35 0.0 LegendMM LegendMM   100.50     LegendNANA
14:00 10.2 -5.4 33 0.0 LegendMM LegendMM   100.46     LegendNANA
15:00 10.1 -6.1 31 0.0 LegendMM LegendMM   100.42     LegendNANA
16:00 9.7 -6.0 33 0.0 LegendMM LegendMM   100.39     LegendNANA
17:00 10.1 -5.7 32 0.0 LegendMM LegendMM   100.39     LegendNANA
18:00 10.3 -5.9 32 0.0 LegendMM LegendMM   100.42     LegendNANA
19:00 9.4 -5.4 35 0.0 LegendMM LegendMM   100.47     LegendNANA
20:00 8.5 -6.3 35 0.0 LegendMM LegendMM   100.51     LegendNANA
21:00 7.6 -6.1 37 0.0 LegendMM LegendMM   100.53     LegendNANA
22:00 6.1 -5.6 43 0.0 LegendMM LegendMM   100.50     LegendNANA
23:00 5.2 -4.9 48 0.0 LegendMM LegendMM   100.46     LegendNANA

Notes on Data Quality.

Legend

  • E = Estimated
  • M = Missing
  • NA = Not Available*
  • [empty] = Indicates an unobserved value
Date modified: